Time,TemperatureF,DewpointF,PressureIn,WindDirection,WindDirectionDegrees,WindSpeedMPH,WindSpeedGustMPH,Humidity,HourlyPrecipIn,Conditions,Clouds,dailyrainin,SoftwareType,DateUTC
2013-04-09 00:03:00,63.0,56.7,29.87,SE,136,0.0,0.0,80,0.00,,,0.07,Wunderground v.1.15,2013-04-09 05:03:00,
2013-04-09 00:13:00,62.9,56.6,29.88,SE,136,0.0,0.0,80,0.00,,,0.07,Wunderground v.1.15,2013-04-09 05:13:00,
2013-04-09 00:23:00,62.5,56.6,29.88,SE,136,0.0,0.0,81,0.00,,,0.07,Wunderground v.1.15,2013-04-09 05:23:00,
2013-04-09 00:33:00,62.2,56.3,29.88,SE,136,0.0,0.0,81,0.00,,,0.07,Wunderground v.1.15,2013-04-09 05:33:00,
2013-04-09 00:43:00,61.9,56.0,29.88,SE,136,0.0,0.0,81,0.00,,,0.07,Wunderground v.1.15,2013-04-09 05:43:00,
2013-04-09 00:53:00,61.6,55.7,29.88,SE,136,0.0,0.0,81,0.00,,,0.07,Wunderground v.1.15,2013-04-09 05:53:00,
2013-04-09 01:03:00,61.5,55.6,29.88,SE,133,0.0,0.0,81,0.00,,,0.07,Wunderground v.1.15,2013-04-09 06:03:00,
2013-04-09 01:13:00,61.3,55.4,29.88,SE,130,0.0,0.0,81,0.00,,,0.07,Wunderground v.1.15,2013-04-09 06:13:00,
2013-04-09 01:23:00,61.3,55.4,29.87,SE,131,0.0,0.0,81,0.00,,,0.07,Wunderground v.1.15,2013-04-09 06:23:00,
2013-04-09 01:33:00,60.7,55.2,29.87,SE,131,0.0,0.0,82,0.00,,,0.07,Wunderground v.1.15,2013-04-09 06:33:00,
2013-04-09 01:43:00,60.7,55.5,29.87,SE,131,0.0,0.0,83,0.00,,,0.07,Wunderground v.1.15,2013-04-09 06:43:00,
2013-04-09 01:53:00,60.9,55.7,29.86,SE,131,0.0,0.0,83,0.00,,,0.00,Wunderground v.1.15,2013-04-09 06:53:00,
2013-04-09 02:03:00,61.0,55.5,29.86,SE,132,0.0,0.0,82,0.00,,,0.00,Wunderground v.1.15,2013-04-09 07:03:00,
2013-04-09 02:13:00,60.6,55.4,29.85,SE,132,0.0,0.0,83,0.00,,,0.00,Wunderground v.1.15,2013-04-09 07:13:00,
2013-04-09 02:23:00,60.0,54.8,29.84,SE,132,0.0,0.0,83,0.00,,,0.00,Wunderground v.1.15,2013-04-09 07:23:00,
2013-04-09 02:33:00,59.6,54.8,29.85,SE,132,0.0,0.0,84,0.00,,,0.00,Wunderground v.1.15,2013-04-09 07:33:00,
2013-04-09 02:43:00,59.6,54.8,29.85,SE,132,0.0,0.0,84,0.00,,,0.00,Wunderground v.1.15,2013-04-09 07:43:00,
2013-04-09 02:53:00,60.0,55.5,29.84,SE,132,0.0,0.0,85,0.00,,,0.00,Wunderground v.1.15,2013-04-09 07:53:00,
2013-04-09 03:03:00,60.3,55.4,29.84,SE,132,0.0,0.0,84,0.00,,,0.00,Wunderground v.1.15,2013-04-09 08:03:00,
2013-04-09 03:13:00,60.7,55.8,29.84,SE,132,0.0,0.0,84,0.00,,,0.00,Wunderground v.1.15,2013-04-09 08:13:00,
2013-04-09 03:23:00,61.2,56.0,29.84,SE,136,0.0,0.0,83,0.00,,,0.00,Wunderground v.1.15,2013-04-09 08:23:00,
2013-04-09 03:33:00,61.6,56.0,29.84,SE,138,0.0,0.0,82,0.00,,,0.00,Wunderground v.1.15,2013-04-09 08:33:00,
2013-04-09 03:43:00,61.6,56.0,29.84,SE,142,0.0,0.0,82,0.00,,,0.00,Wunderground v.1.15,2013-04-09 08:43:00,
2013-04-09 03:53:00,61.5,56.0,29.84,SE,142,0.0,0.0,82,0.00,,,0.00,Wunderground v.1.15,2013-04-09 08:53:00,
2013-04-09 04:03:00,61.8,56.2,29.84,SE,140,0.0,0.0,82,0.00,,,0.00,Wunderground v.1.15,2013-04-09 09:03:00,
2013-04-09 04:13:00,62.1,56.2,29.84,SE,135,0.0,0.0,81,0.00,,,0.00,Wunderground v.1.15,2013-04-09 09:13:00,
2013-04-09 04:23:00,62.2,56.3,29.84,SE,134,0.0,0.0,81,0.00,,,0.00,Wunderground v.1.15,2013-04-09 09:23:00,
2013-04-09 04:33:00,62.2,56.3,29.84,SE,134,0.0,0.0,81,0.00,,,0.00,Wunderground v.1.15,2013-04-09 09:33:00,
2013-04-09 04:43:00,62.2,56.3,29.84,SE,124,0.0,0.0,81,0.00,,,0.00,Wunderground v.1.15,2013-04-09 09:43:00,
2013-04-09 04:53:00,62.5,56.6,29.84,SE,135,0.0,0.0,81,0.00,,,0.00,Wunderground v.1.15,2013-04-09 09:53:00,
2013-04-09 05:03:00,62.7,56.4,29.84,SE,140,0.0,0.0,80,0.00,,,0.00,Wunderground v.1.15,2013-04-09 10:03:00,
2013-04-09 05:13:00,62.9,56.6,29.84,SE,136,0.0,0.0,80,0.00,,,0.00,Wunderground v.1.15,2013-04-09 10:13:00,
2013-04-09 05:23:00,62.7,56.4,29.85,SE,141,0.0,0.0,80,0.00,,,0.00,Wunderground v.1.15,2013-04-09 10:23:00,
2013-04-09 05:33:00,62.7,56.4,29.85,SE,139,0.0,0.0,80,0.00,,,0.00,Wunderground v.1.15,2013-04-09 10:33:00,
2013-04-09 05:43:00,62.7,56.4,29.84,SE,136,0.0,0.0,80,0.00,,,0.00,Wunderground v.1.15,2013-04-09 10:43:00,
2013-04-09 05:53:00,62.7,56.4,29.85,SE,135,0.0,0.0,80,0.00,,,0.00,Wunderground v.1.15,2013-04-09 10:53:00,
2013-04-09 06:03:00,62.5,56.2,29.85,SE,141,0.0,0.0,80,0.00,,,0.00,Wunderground v.1.15,2013-04-09 11:03:00,
2013-04-09 06:13:00,62.5,56.2,29.85,SE,138,0.0,0.0,80,0.00,,,0.00,Wunderground v.1.15,2013-04-09 11:13:00,
2013-04-09 06:23:00,62.5,56.2,29.85,SE,140,0.0,0.0,80,0.00,,,0.00,Wunderground v.1.15,2013-04-09 11:23:00,
2013-04-09 06:33:00,62.4,56.1,29.85,SE,139,0.0,0.0,80,0.00,,,0.00,Wunderground v.1.15,2013-04-09 11:33:00,
2013-04-09 06:43:00,62.2,56.3,29.85,SE,141,0.0,0.0,81,0.00,,,0.00,Wunderground v.1.15,2013-04-09 11:43:00,
2013-04-09 06:53:00,62.1,56.2,29.85,SE,140,0.0,0.0,81,0.00,,,0.00,Wunderground v.1.15,2013-04-09 11:53:00,
2013-04-09 07:03:00,62.2,56.3,29.85,SE,140,0.0,0.0,81,0.00,,,0.00,Wunderground v.1.15,2013-04-09 12:03:00,
2013-04-09 07:13:00,62.7,56.8,29.85,SE,138,0.0,0.0,81,0.00,,,0.00,Wunderground v.1.15,2013-04-09 12:13:00,
2013-04-09 07:23:00,63.0,56.7,29.85,SE,140,0.0,0.0,80,0.00,,,0.00,Wunderground v.1.15,2013-04-09 12:23:00,
2013-04-09 07:33:00,63.0,56.4,29.85,SE,140,0.0,0.0,79,0.00,,,0.00,Wunderground v.1.15,2013-04-09 12:33:00,
2013-04-09 07:43:00,63.0,56.7,29.85,SSE,160,0.0,0.0,80,0.00,,,0.00,Wunderground v.1.15,2013-04-09 12:43:00,
2013-04-09 07:53:00,63.2,56.9,29.85,SSE,160,0.0,0.0,80,0.00,,,0.00,Wunderground v.1.15,2013-04-09 12:53:00,
2013-04-09 08:03:00,63.8,57.2,29.85,SSE,167,0.0,0.0,79,0.00,,,0.00,Wunderground v.1.15,2013-04-09 13:03:00,
2013-04-09 08:13:00,64.9,57.2,29.84,SSE,164,0.0,0.0,76,0.00,,,0.00,Wunderground v.1.15,2013-04-09 13:13:00,
2013-04-09 08:23:00,65.5,57.0,29.84,SSE,165,0.0,0.0,74,0.00,,,0.00,Wunderground v.1.15,2013-04-09 13:23:00,
2013-04-09 08:33:00,66.0,57.1,29.84,SSE,168,0.0,0.0,73,0.00,,,0.00,Wunderground v.1.15,2013-04-09 13:33:00,
2013-04-09 08:43:00,66.8,57.5,29.83,South,173,0.0,0.0,72,0.00,,,0.00,Wunderground v.1.15,2013-04-09 13:43:00,
2013-04-09 08:53:00,67.3,57.6,29.84,SSE,167,0.0,0.0,71,0.00,,,0.00,Wunderground v.1.15,2013-04-09 13:53:00,
2013-04-09 09:03:00,67.8,57.7,29.83,South,180,0.0,0.0,70,0.00,,,0.00,Wunderground v.1.15,2013-04-09 14:03:00,
2013-04-09 09:13:00,68.6,58.0,29.84,SSE,167,0.0,0.0,69,0.00,,,0.00,Wunderground v.1.15,2013-04-09 14:13:00,
2013-04-09 09:23:00,69.3,57.9,29.84,SSW,207,0.0,0.0,67,0.00,,,0.00,Wunderground v.1.15,2013-04-09 14:23:00,
2013-04-09 09:33:00,70.1,58.2,29.83,South,183,0.0,0.0,66,0.00,,,0.00,Wunderground v.1.15,2013-04-09 14:33:00,
2013-04-09 09:43:00,70.9,58.1,29.83,SSW,194,0.0,0.0,64,0.00,,,0.00,Wunderground v.1.15,2013-04-09 14:43:00,
2013-04-09 09:53:00,72.1,58.8,29.83,South,186,0.0,0.0,63,0.00,,,0.00,Wunderground v.1.15,2013-04-09 14:53:00,
2013-04-09 10:03:00,72.8,58.1,29.83,South,188,0.0,0.0,60,0.00,,,0.00,Wunderground v.1.15,2013-04-09 15:03:00,
2013-04-09 10:13:00,74.1,57.9,29.82,SW,214,0.0,0.0,57,0.00,,,0.00,Wunderground v.1.15,2013-04-09 15:13:00,
2013-04-09 10:23:00,74.5,57.8,29.82,SSW,194,0.0,0.0,56,0.00,,,0.00,Wunderground v.1.15,2013-04-09 15:23:00,
2013-04-09 10:33:00,74.8,58.1,29.82,SSW,205,0.0,0.0,56,0.00,,,0.00,Wunderground v.1.15,2013-04-09 15:33:00,
2013-04-09 10:43:00,75.5,58.2,29.81,South,190,0.0,0.0,55,0.00,,,0.00,Wunderground v.1.15,2013-04-09 15:43:00,
2013-04-09 10:53:00,76.4,58.0,29.81,South,188,0.0,0.0,53,0.00,,,0.00,Wunderground v.1.15,2013-04-09 15:53:00,
2013-04-09 11:03:00,76.6,58.2,29.81,SSW,194,0.0,0.0,53,0.00,,,0.00,Wunderground v.1.15,2013-04-09 16:03:00,
2013-04-09 11:13:00,76.7,57.2,29.81,SSW,205,0.0,0.0,51,0.00,,,0.00,Wunderground v.1.15,2013-04-09 16:13:00,
2013-04-09 11:23:00,76.7,57.2,29.82,SSW,196,0.0,0.0,51,0.00,,,0.00,Wunderground v.1.15,2013-04-09 16:23:00,
2013-04-09 11:33:00,77.3,57.2,29.82,SSW,195,0.0,0.0,50,0.00,,,0.00,Wunderground v.1.15,2013-04-09 16:33:00,
2013-04-09 11:43:00,76.7,56.1,29.82,South,190,0.0,0.0,49,0.00,,,0.00,Wunderground v.1.15,2013-04-09 16:43:00,
2013-04-09 11:53:00,76.9,56.8,29.83,SSW,206,0.0,0.0,50,0.00,,,0.00,Wunderground v.1.15,2013-04-09 16:53:00,
2013-04-09 12:03:00,77.1,55.9,29.83,South,186,0.0,0.0,48,0.00,,,0.00,Wunderground v.1.15,2013-04-09 17:03:00,
2013-04-09 12:13:00,75.9,56.5,29.83,SW,225,0.0,0.0,51,0.00,,,0.00,Wunderground v.1.15,2013-04-09 17:13:00,
2013-04-09 12:23:00,75.9,55.9,29.83,SSW,210,0.0,0.0,50,0.00,,,0.00,Wunderground v.1.15,2013-04-09 17:23:00,
2013-04-09 12:33:00,75.9,56.5,29.84,SSW,198,0.0,0.0,51,0.00,,,0.00,Wunderground v.1.15,2013-04-09 17:33:00,
2013-04-09 12:43:00,76.7,56.7,29.83,SW,219,0.0,0.0,50,0.00,,,0.00,Wunderground v.1.15,2013-04-09 17:43:00,
2013-04-09 12:53:00,77.1,56.5,29.83,SSW,193,0.0,0.0,49,0.00,,,0.00,Wunderground v.1.15,2013-04-09 17:53:00,
2013-04-09 13:03:00,78.3,55.8,29.82,SSW,208,0.0,0.0,46,0.00,,,0.00,Wunderground v.1.15,2013-04-09 18:03:00,
2013-04-09 13:13:00,78.3,55.8,29.82,SSW,202,0.0,0.0,46,0.00,,,0.00,Wunderground v.1.15,2013-04-09 18:13:00,
2013-04-09 13:23:00,78.1,57.4,29.82,SSW,211,0.0,0.0,49,0.00,,,0.00,Wunderground v.1.15,2013-04-09 18:23:00,
2013-04-09 13:33:00,79.0,56.5,29.81,SSW,207,0.0,0.0,46,0.00,,,0.00,Wunderground v.1.15,2013-04-09 18:33:00,
2013-04-09 13:43:00,79.4,57.4,29.81,SSW,210,0.0,0.0,47,0.00,,,0.00,Wunderground v.1.15,2013-04-09 18:43:00,
2013-04-09 13:53:00,79.0,57.6,29.81,South,182,0.0,0.0,48,0.00,,,0.00,Wunderground v.1.15,2013-04-09 18:53:00,
2013-04-09 14:03:00,79.7,56.5,29.81,SW,233,0.0,0.0,45,0.00,,,0.00,Wunderground v.1.15,2013-04-09 19:03:00,
2013-04-09 14:13:00,80.3,55.8,29.80,SSW,209,0.0,0.0,43,0.00,,,0.00,Wunderground v.1.15,2013-04-09 19:13:00,
2013-04-09 14:23:00,80.3,56.4,29.80,SW,236,0.0,0.0,44,0.00,,,0.00,Wunderground v.1.15,2013-04-09 19:23:00,
2013-04-09 14:33:00,80.8,54.9,29.79,SW,229,0.0,0.0,41,0.00,,,0.00,Wunderground v.1.15,2013-04-09 19:33:00,
2013-04-09 14:43:00,81.2,55.9,29.79,South,190,0.0,0.0,42,0.00,,,0.00,Wunderground v.1.15,2013-04-09 19:43:00,
2013-04-09 14:53:00,81.4,54.8,29.79,SSW,194,0.0,0.0,40,0.00,,,0.00,Wunderground v.1.15,2013-04-09 19:53:00,
2013-04-09 15:03:00,81.8,57.1,29.78,SW,220,0.0,0.0,43,0.00,,,0.00,Wunderground v.1.15,2013-04-09 20:03:00,
2013-04-09 15:13:00,81.8,53.7,29.78,SW,228,0.0,0.0,38,0.00,,,0.00,Wunderground v.1.15,2013-04-09 20:13:00,
2013-04-09 15:23:00,82.1,55.4,29.78,SW,236,0.0,0.0,40,0.00,,,0.00,Wunderground v.1.15,2013-04-09 20:23:00,
2013-04-09 15:33:00,80.8,55.6,29.79,SSW,202,0.0,0.0,42,0.00,,,0.00,Wunderground v.1.15,2013-04-09 20:33:00,
2013-04-09 15:43:00,80.8,54.9,29.78,SW,233,0.0,0.0,41,0.00,,,0.00,Wunderground v.1.15,2013-04-09 20:43:00,
2013-04-09 15:53:00,79.6,57.0,29.78,SSW,205,0.0,0.0,46,0.00,,,0.00,Wunderground v.1.15,2013-04-09 20:53:00,
2013-04-09 16:03:00,79.6,57.0,29.79,SSW,212,0.0,0.0,46,0.00,,,0.00,Wunderground v.1.15,2013-04-09 21:03:00,
2013-04-09 16:13:00,78.8,56.3,29.80,SSW,210,0.0,0.0,46,0.00,,,0.00,Wunderground v.1.15,2013-04-09 21:13:00,
2013-04-09 16:23:00,77.8,57.1,29.80,SSW,207,0.0,0.0,49,0.00,,,0.00,Wunderground v.1.15,2013-04-09 21:23:00,
2013-04-09 16:33:00,77.1,58.1,29.80,South,189,0.0,0.0,52,0.00,,,0.00,Wunderground v.1.15,2013-04-09 21:33:00,
2013-04-09 16:43:00,76.9,57.9,29.80,SSW,209,0.0,0.0,52,0.00,,,0.00,Wunderground v.1.15,2013-04-09 21:43:00,
2013-04-09 16:53:00,76.4,57.5,29.81,SSW,203,0.0,0.0,52,0.00,,,0.00,Wunderground v.1.15,2013-04-09 21:53:00,
2013-04-09 17:03:00,77.3,57.8,29.81,SSW,206,0.0,0.0,51,0.00,,,0.00,Wunderground v.1.15,2013-04-09 22:03:00,
2013-04-09 17:13:00,78.1,57.4,29.81,SSW,209,0.0,0.0,49,0.00,,,0.00,Wunderground v.1.15,2013-04-09 22:13:00,
2013-04-09 17:23:00,77.8,57.7,29.81,SSW,211,0.0,0.0,50,0.00,,,0.00,Wunderground v.1.15,2013-04-09 22:23:00,
2013-04-09 17:33:00,77.1,57.6,29.81,SSW,207,0.0,0.0,51,0.00,,,0.00,Wunderground v.1.15,2013-04-09 22:33:00,
2013-04-09 17:43:00,77.4,57.9,29.81,SSW,208,0.0,0.0,51,0.00,,,0.00,Wunderground v.1.15,2013-04-09 22:43:00,
2013-04-09 17:53:00,77.4,57.9,29.81,SSW,209,0.0,0.0,51,0.00,,,0.00,Wunderground v.1.15,2013-04-09 22:53:00,
2013-04-09 18:03:00,77.1,58.1,29.81,SSW,208,0.0,0.0,52,0.00,,,0.00,Wunderground v.1.15,2013-04-09 23:03:00,
2013-04-09 18:13:00,76.9,57.9,29.81,SSW,213,0.0,0.0,52,0.00,,,0.00,Wunderground v.1.15,2013-04-09 23:13:00,
2013-04-09 18:23:00,76.7,58.3,29.82,SSW,202,0.0,0.0,53,0.00,,,0.00,Wunderground v.1.15,2013-04-09 23:23:00,
2013-04-09 18:33:00,76.4,58.0,29.81,SSW,210,0.0,0.0,53,0.00,,,0.00,Wunderground v.1.15,2013-04-09 23:33:00,
2013-04-09 18:43:00,75.9,57.5,29.81,South,189,0.0,0.0,53,0.00,,,0.00,Wunderground v.1.15,2013-04-09 23:43:00,
2013-04-09 18:53:00,75.5,57.7,29.82,SSW,195,0.0,0.0,54,0.00,,,0.00,Wunderground v.1.15,2013-04-09 23:53:00,
2013-04-09 19:03:00,75.0,57.7,29.82,South,185,0.0,0.0,55,0.00,,,0.00,Wunderground v.1.15,2013-04-10 00:03:00,
2013-04-09 19:13:00,74.3,57.6,29.82,South,186,0.0,0.0,56,0.00,,,0.00,Wunderground v.1.15,2013-04-10 00:13:00,
2013-04-09 19:23:00,73.3,57.6,29.82,South,188,0.0,0.0,58,0.00,,,0.00,Wunderground v.1.15,2013-04-10 00:23:00,
2013-04-09 19:33:00,71.9,57.3,29.82,South,188,0.0,0.0,60,0.00,,,0.00,Wunderground v.1.15,2013-04-10 00:33:00,
2013-04-09 19:43:00,71.1,57.4,29.82,South,188,0.0,0.0,62,0.00,,,0.00,Wunderground v.1.15,2013-04-10 00:43:00,
2013-04-09 19:53:00,70.3,57.5,29.82,South,188,0.0,0.0,64,0.00,,,0.00,Wunderground v.1.15,2013-04-10 00:53:00,
2013-04-09 20:03:00,70.1,57.8,29.82,South,188,0.0,0.0,65,0.00,,,0.00,Wunderground v.1.15,2013-04-10 01:03:00,
2013-04-09 20:13:00,69.9,57.6,29.82,South,188,0.0,0.0,65,0.00,,,0.00,Wunderground v.1.15,2013-04-10 01:13:00,
2013-04-09 20:23:00,69.3,57.9,29.82,South,188,0.0,0.0,67,0.00,,,0.00,Wunderground v.1.15,2013-04-10 01:23:00,
2013-04-09 20:33:00,68.9,57.1,29.82,South,188,0.0,0.0,66,0.00,,,0.00,Wunderground v.1.15,2013-04-10 01:33:00,
2013-04-09 20:43:00,68.1,57.1,29.83,South,188,0.0,0.0,68,0.00,,,0.00,Wunderground v.1.15,2013-04-10 01:43:00,
2013-04-09 20:53:00,67.2,57.1,29.83,South,188,0.0,0.0,70,0.00,,,0.00,Wunderground v.1.15,2013-04-10 01:53:00,
2013-04-09 21:03:00,66.3,55.8,29.83,South,188,0.0,0.0,69,0.00,,,0.00,Wunderground v.1.15,2013-04-10 02:03:00,
2013-04-09 21:13:00,65.4,55.7,29.83,South,188,0.0,0.0,71,0.00,,,0.00,Wunderground v.1.15,2013-04-10 02:13:00,
2013-04-09 21:23:00,65.2,57.1,29.83,South,188,0.0,0.0,75,0.00,,,0.00,Wunderground v.1.15,2013-04-10 02:23:00,
2013-04-09 21:32:00,64.6,56.1,29.84,South,188,0.0,0.0,74,0.00,,,0.00,Wunderground v.1.15,2013-04-10 02:32:00,
2013-04-09 21:43:00,63.8,55.7,29.84,South,188,0.0,0.0,75,0.00,,,0.00,Wunderground v.1.15,2013-04-10 02:43:00,
2013-04-09 21:53:00,63.0,55.7,29.84,South,188,0.0,0.0,77,0.00,,,0.00,Wunderground v.1.15,2013-04-10 02:53:00,
2013-04-09 22:03:00,62.5,55.9,29.84,South,188,0.0,0.0,79,0.00,,,0.00,Wunderground v.1.15,2013-04-10 03:03:00,
2013-04-09 22:13:00,62.4,56.1,29.84,South,188,0.0,0.0,80,0.00,,,0.00,Wunderground v.1.15,2013-04-10 03:13:00,
2013-04-09 22:22:00,62.2,56.3,29.84,South,188,0.0,0.0,81,0.00,,,0.00,Wunderground v.1.15,2013-04-10 03:22:00,
2013-04-09 22:33:00,62.7,57.5,29.84,South,188,0.0,0.0,83,0.00,,,0.00,Wunderground v.1.15,2013-04-10 03:33:00,
2013-04-09 22:43:00,63.6,58.3,29.83,South,188,0.0,0.0,83,0.00,,,0.00,Wunderground v.1.15,2013-04-10 03:43:00,
2013-04-09 22:53:00,64.6,59.0,29.83,South,188,0.0,0.0,82,0.00,,,0.00,Wunderground v.1.15,2013-04-10 03:53:00,
2013-04-09 23:03:00,65.7,59.4,29.83,South,188,0.0,0.0,80,0.00,,,0.00,Wunderground v.1.15,2013-04-10 04:03:00,
2013-04-09 23:07:00,66.0,59.3,29.83,South,188,0.0,0.0,79,0.00,,,0.00,Wunderground v.1.15,2013-04-10 04:07:00,
2013-04-09 23:13:00,66.3,59.2,29.82,South,188,0.0,0.0,78,0.00,,,0.00,Wunderground v.1.15,2013-04-10 04:13:00,
2013-04-09 23:23:00,66.8,59.4,29.82,South,188,0.0,0.0,77,0.00,,,0.00,Wunderground v.1.15,2013-04-10 04:23:00,
2013-04-09 23:33:00,67.0,59.2,29.81,South,188,0.0,0.0,76,0.00,,,0.00,Wunderground v.1.15,2013-04-10 04:33:00,
2013-04-09 23:43:00,67.0,59.2,29.81,South,188,0.0,0.0,76,0.00,,,0.00,Wunderground v.1.15,2013-04-10 04:43:00,
2013-04-09 23:53:00,66.8,59.4,29.81,South,188,0.0,0.0,77,0.00,,,0.00,Wunderground v.1.15,2013-04-10 04:53:00,